"Sample Date","Sample Time","Sample Value","Units","Flow Rate","Laser Status","Micron Size 0","Counts/Channel 0","Micron Size 1","Counts/Channel 1","Micron Size 2","Counts/Channel 2","Micron Size 3","Counts/Channel 3","Micron Size 4","Counts/Channel 4","Micron Size 5","Counts/Channel 5","Micron Size 6","Counts/Channel 6","Micron Size 7","Counts/Channel 7","Micron Size 8","Counts/Channel 8","Micron Size 9","Counts/Channel 9","Micron Size 10","Counts/Channel 10","Micron Size 11","Counts/Channel 11","Micron Size 12","Counts/Channel 12","Micron Size 13","Counts/Channel 13","Micron Size 14","Counts/Channel 14","Micron Size 15","Counts/Channel 15","Micron Size 16","Counts/Channel 16","Micron Size 17","Counts/Channel 17","Micron Size 18","Counts/Channel 18","Micron Size 19","Counts/Channel 19","Micron Size 20","Counts/Channel 20","Micron Size 21","Counts/Channel 21","Micron Size 22","Counts/Channel 22","Micron Size 23","Counts/Channel 23","Micron Size 24","Counts/Channel 24","Micron Size 25","Counts/Channel 25","Micron Size 26","Counts/Channel 26","Micron Size 27","Counts/Channel 27","Micron Size 28","Counts/Channel 28","Micron Size 29","Counts/Channel 29","Micron Size 30","Counts/Channel 30","Micron Size 31","Counts/Channel 31"
"05/02/07","15:00:50",211627.000,"cf",1.000,1,0.100,175766.000,0.200,32380.000,0.300,2780.000,0.500,525.000,1.000,176.000,5.000,0
"05/02/07","15:01:55",333253.000,"cf",1.001,1,0.100,277482.000,0.200,50429.000,0.300,4370.000,0.500,718.000,1.000,250.000,5.000,4.000
"05/02/07","15:02:55",356823.000,"cf",1.000,1,0.100,297150.000,0.200,54179.000,0.300,4384.000,0.500,845.000,1.000,264.000,5.000,1.000
"05/02/07","15:03:55",318018.000,"cf",1.000,1,0.100,264128.000,0.200,48589.000,0.300,4128.000,0.500,887.000,1.000,286.000,5.000,0
"05/02/07","15:04:55",354709.000,"cf",1.000,1,0.100,295718.000,0.200,53578.000,0.300,4356.000,0.500,793.000,1.000,264.000,5.000,0
"05/02/07","15:05:55",321915.000,"cf",1.000,1,0.100,267345.000,0.200,49178.000,0.300,4217.000,0.500,905.000,1.000,269.000,5.000,1.000
"05/02/07","15:06:55",334673.000,"cf",1.000,1,0.100,278291.000,0.200,50780.000,0.300,4379.000,0.500,991.000,1.000,231.000,5.000,1.000
"05/02/07","15:07:55",398978.000,"cf",1.000,1,0.100,333689.000,0.200,59540.000,0.300,4572.000,0.500,890.000,1.000,286.000,5.000,1.000
"05/02/07","15:08:55",424722.000,"cf",1.000,1,0.100,355449.000,0.200,63277.000,0.300,4845.000,0.500,873.000,1.000,278.000,5.000,0
"05/02/07","15:09:55",364319.000,"cf",1.000,1,0.100,304264.000,0.200,54756.000,0.300,4303.000,0.500,774.000,1.000,222.000,5.000,0
"05/02/07","15:10:55",310132.000,"cf",1.000,1,0.100,257738.000,0.200,47635.000,0.300,3960.000,0.500,656.000,1.000,143.000,5.000,0
"05/02/07","15:11:55",302438.000,"cf",1.000,1,0.100,251397.000,0.200,46399.000,0.300,3846.000,0.500,653.000,1.000,142.000,5.000,1.000
"05/02/07","15:12:55",319165.000,"cf",1.000,1,0.100,265378.000,0.200,48728.000,0.300,4178.000,0.500,713.000,1.000,168.000,5.000,0
"05/02/07","15:13:55",330265.000,"cf",1.000,1,0.100,276391.000,0.200,48851.000,0.300,4124.000,0.500,706.000,1.000,192.000,5.000,1.000
"05/02/07","15:14:55",391829.000,"cf",1.000,1,0.100,329043.000,0.200,57260.000,0.300,4531.000,0.500,790.000,1.000,205.000,5.000,0
"05/02/07","15:15:55",334448.000,"cf",1.000,1,0.100,279402.000,0.200,49826.000,0.300,4294.000,0.500,765.000,1.000,161.000,5.000,0
"05/02/07","15:16:54",358990.000,"cf",1.000,1,0.100,300498.000,0.200,53021.000,0.300,4466.000,0.500,796.000,1.000,209.000,5.000,0
"05/02/07","15:17:54",455940.000,"cf",1.000,1,0.100,383290.000,0.200,66549.000,0.300,4969.000,0.500,881.000,1.000,250.000,5.000,1.000
"05/02/07","15:18:54",439232.000,"cf",1.000,1,0.100,366716.000,0.200,65775.000,0.300,5450.000,0.500,988.000,1.000,302.000,5.000,1.000
"05/02/07","15:19:54",424316.000,"cf",1.000,1,0.100,353855.000,0.200,63870.000,0.300,5306.000,0.500,982.000,1.000,302.000,5.000,1.000
"05/02/07","15:20:54",397525.000,"cf",1.000,1,0.100,330526.000,0.200,60324.000,0.300,5347.000,0.500,1041.000,1.000,287.000,5.000,0
"05/02/07","15:21:54",356044.000,"cf",1.000,1,0.100,295291.000,0.200,54580.000,0.300,4945.000,0.500,965.000,1.000,263.000,5.000,0
"05/02/07","15:22:54",343503.000,"cf",1.000,1,0.100,284381.000,0.200,52940.000,0.300,4988.000,0.500,964.000,1.000,230.000,5.000,0
"05/02/07","15:23:54",358226.000,"cf",1.000,1,0.100,297010.000,0.200,55038.000,0.300,4997.000,0.500,967.000,1.000,214.000,5.000,0
"05/02/07","15:24:54",386677.000,"cf",1.000,1,0.100,321696.000,0.200,58482.000,0.300,5284.000,0.500,967.000,1.000,248.000,5.000,0
"05/02/07","15:25:54",337246.000,"cf",1.000,1,0.100,279179.000,0.200,52151.000,0.300,4854.000,0.500,857.000,1.000,205.000,5.000,0
"05/02/07","15:26:54",337090.000,"cf",1.000,1,0.100,279657.000,0.200,51742.000,0.300,4687.000,0.500,836.000,1.000,167.000,5.000,1.000
"05/02/07","15:27:54",371547.000,"cf",1.000,1,0.100,308254.000,0.200,57151.000,0.300,5079.000,0.500,851.000,1.000,212.000,5.000,0
"05/02/07","15:28:54",479039.000,"cf",1.000,1,0.100,398948.000,0.200,72575.000,0.300,6197.000,0.500,1032.000,1.000,287.000,5.000,0
"05/02/07","15:29:54",583105.000,"cf",1.000,1,0.100,484916.000,0.200,89164.000,0.300,7388.000,0.500,1261.000,1.000,376.000,5.000,0
"05/02/07","15:30:54",595079.000,"cf",1.000,1,0.100,495635.000,0.200,90120.000,0.300,7548.000,0.500,1378.000,1.000,398.000,5.000,0
"05/02/07","15:31:54",558227.000,"cf",1.000,1,0.100,465442.000,0.200,83482.000,0.300,7355.000,0.500,1551.000,1.000,397.000,5.000,0
"05/02/07","15:32:54",644784.000,"cf",1.000,1,0.100,539645.000,0.200,95801.000,0.300,7634.000,0.500,1332.000,1.000,372.000,5.000,0
"05/02/07","15:33:54",512739.000,"cf",1.000,1,0.100,427614.000,0.200,76778.000,0.300,6652.000,0.500,1310.000,1.000,385.000,5.000,0
"05/02/07","15:34:54",479767.000,"cf",1.000,1,0.100,400019.000,0.200,71934.000,0.300,6237.000,0.500,1223.000,1.000,354.000,5.000,0
"05/02/07","15:35:54",491689.000,"cf",1.000,1,0.100,411134.000,0.200,73060.000,0.300,6016.000,0.500,1138.000,1.000,341.000,5.000,0
"05/02/07","15:36:54",451806.000,"cf",1.000,1,0.100,377384.000,0.200,67377.000,0.300,5675.000,0.500,1085.000,1.000,284.000,5.000,1.000
"05/02/07","15:37:54",452295.000,"cf",1.000,1,0.100,379355.000,0.200,66051.000,0.300,5507.000,0.500,1058.000,1.000,323.000,5.000,1.000
"05/02/07","15:38:54",429069.000,"cf",1.000,1,0.100,358959.000,0.200,63466.000,0.300,5260.000,0.500,1060.000,1.000,323.000,5.000,1.000
"05/02/07","15:39:54",357993.000,"cf",1.000,1,0.100,298389.000,0.200,53664.000,0.300,4648.000,0.500,993.000,1.000,299.000,5.000,0
"05/02/07","15:40:54",368019.000,"cf",1.000,1,0.100,306573.000,0.200,55302.000,0.300,4786.000,0.500,1021.000,1.000,337.000,5.000,0
"05/02/07","15:41:54",504293.000,"cf",1.000,1,0.100,423477.000,0.200,74005.000,0.300,5548.000,0.500,962.000,1.000,301.000,5.000,0
"05/02/07","15:42:54",472483.000,"cf",1.000,1,0.100,396142.000,0.200,69533.000,0.300,5505.000,0.500,1010.000,1.000,292.000,5.000,1.000
"05/02/07","15:43:54",363683.000,"cf",1.000,1,0.100,303435.000,0.200,54349.000,0.300,4675.000,0.500,939.000,1.000,285.000,5.000,0
"05/02/07","15:44:54",327569.000,"cf",1.000,1,0.100,271263.000,0.200,50563.000,0.300,4543.000,0.500,927.000,1.000,273.000,5.000,0
"05/02/07","15:45:54",337495.000,"cf",1.000,1,0.100,279880.000,0.200,51640.000,0.300,4828.000,0.500,924.000,1.000,223.000,5.000,0
"05/02/07","15:46:54",332433.000,"cf",1.000,1,0.100,276002.000,0.200,50449.000,0.300,4691.000,0.500,1012.000,1.000,279.000,5.000,0
"05/02/07","15:47:54",342146.000,"cf",1.000,1,0.100,284058.000,0.200,51999.000,0.300,4841.000,0.500,969.000,1.000,279.000,5.000,0
"05/02/07","15:48:54",373167.000,"cf",1.000,1,0.100,310200.000,0.200,56368.000,0.300,5235.000,0.500,1059.000,1.000,304.000,5.000,1.000
"05/02/07","15:49:54",441207.000,"cf",1.000,1,0.100,368245.000,0.200,65860.000,0.300,5702.000,0.500,1061.000,1.000,339.000,5.000,0
"05/02/07","15:50:54",432096.000,"cf",1.000,1,0.100,360546.000,0.200,64579.000,0.300,5640.000,0.500,1009.000,1.000,321.000,5.000,1.000
"05/02/07","15:51:54",424489.000,"cf",1.000,1,0.100,353714.000,0.200,64227.000,0.300,5339.000,0.500,918.000,1.000,290.000,5.000,1.000
"05/02/07","15:52:54",514188.000,"cf",1.000,1,0.100,430226.000,0.200,76786.000,0.300,5860.000,0.500,1027.000,1.000,289.000,5.000,0
"05/02/07","15:53:54",533532.000,"cf",1.000,1,0.100,446278.000,0.200,79773.000,0.300,6148.000,0.500,1050.000,1.000,283.000,5.000,0
"05/02/07","15:55:28",477033.000,"cubic meters",0.028,1,0.100,394912.000,0.200,74381.000,0.300,6228.000,0.500,1184.000,1.000,328.000,5.000,0
"05/02/07","15:56:28",411028.000,"cubic meters",0.028,1,0.100,339192.000,0.200,64542.000,0.300,5781.000,0.500,1157.000,1.000,356.000,5.000,0
"05/02/07","15:57:28",390492.000,"cubic meters",0.028,1,0.100,322592.000,0.200,61365.000,0.300,5235.000,0.500,1002.000,1.000,298.000,5.000,0
"05/02/07","15:58:18",34953.000,"cubic meters",0.028,1,0.100,28735.000,0.200,5636.000,0.300,453.000,0.500,105.000,1.000,24.000,5.000,0
"05/02/07","15:58:24",34039.000,"cubic meters",0.028,1,0.100,28126.000,0.200,5324.000,0.300,477.000,0.500,89.000,1.000,23.000,5.000,0
"05/02/07","15:58:30",34337.000,"cubic meters",0.028,1,0.100,28343.000,0.200,5407.000,0.300,452.000,0.500,106.000,1.000,29.000,5.000,0
"05/02/07","15:58:36",35644.000,"cubic meters",0.028,1,0.100,29485.000,0.200,5613.000,0.300,445.000,0.500,79.000,1.000,22.000,5.000,0
"05/02/07","15:58:42",35268.000,"cubic meters",0.028,1,0.100,29065.000,0.200,5582.000,0.300,488.000,0.500,96.000,1.000,37.000,5.000,0
"05/02/07","15:58:48",33771.000,"cubic meters",0.028,1,0.100,27781.000,0.200,5401.000,0.300,449.000,0.500,107.000,1.000,33.000,5.000,0
"05/02/07","15:58:54",33343.000,"cubic meters",0.028,1,0.100,27443.000,0.200,5275.000,0.300,480.000,0.500,107.000,1.000,38.000,5.000,0
"05/02/07","15:59:00",33029.000,"cubic meters",0.028,1,0.100,27245.000,0.200,5234.000,0.300,444.000,0.500,77.000,1.000,29.000,5.000,0
"05/02/07","15:59:06",32575.000,"cubic meters",0.028,1,0.100,26959.000,0.200,5089.000,0.300,425.000,0.500,86.000,1.000,16.000,5.000,0
"05/02/07","15:59:12",32412.000,"cubic meters",0.028,1,0.100,26887.000,0.200,5010.000,0.300,406.000,0.500,83.000,1.000,26.000,5.000,0
"05/02/07","15:59:18",33000.000,"cubic meters",0.028,1,0.100,27238.000,0.200,5198.000,0.300,442.000,0.500,90.000,1.000,32.000,5.000,0
"05/02/07","15:59:24",32868.000,"cubic meters",0.028,1,0.100,27053.000,0.200,5196.000,0.300,486.000,0.500,101.000,1.000,32.000,5.000,0
"05/02/07","15:13:55",330265.000,"cc",28317.273,1,0.100,276391.000,0.200,48851.000,0.300,4124.000,0.500,706.000,1.000,192.000,5.000,1.000
"05/02/07","15:14:55",391829.000,"cc",28312.863,1,0.100,329043.000,0.200,57260.000,0.300,4531.000,0.500,790.000,1.000,205.000,5.000,0
"05/02/07","15:15:55",334448.000,"cc",28316.346,1,0.100,279402.000,0.200,49826.000,0.300,4294.000,0.500,765.000,1.000,161.000,5.000,0
"05/02/07","15:16:54",358990.000,"cc",28317.783,1,0.100,300498.000,0.200,53021.000,0.300,4466.000,0.500,796.000,1.000,209.000,5.000,0
"05/02/07","15:17:54",455940.000,"cc",28315.570,1,0.100,383290.000,0.200,66549.000,0.300,4969.000,0.500,881.000,1.000,250.000,5.000,1.000
"05/02/07","15:18:54",439232.000,"cc",28318.756,1,0.100,366716.000,0.200,65775.000,0.300,5450.000,0.500,988.000,1.000,302.000,5.000,1.000
"05/02/07","15:19:54",424316.000,"cc",28315.912,1,0.100,353855.000,0.200,63870.000,0.300,5306.000,0.500,982.000,1.000,302.000,5.000,1.000
"05/02/07","15:20:54",397525.000,"cc",28312.920,1,0.100,330526.000,0.200,60324.000,0.300,5347.000,0.500,1041.000,1.000,287.000,5.000,0
"05/02/07","15:21:54",356044.000,"cc",28317.916,1,0.100,295291.000,0.200,54580.000,0.300,4945.000,0.500,965.000,1.000,263.000,5.000,0
"05/02/07","15:22:54",343503.000,"cc",28324.402,1,0.100,284381.000,0.200,52940.000,0.300,4988.000,0.500,964.000,1.000,230.000,5.000,0
"05/02/07","15:23:54",358226.000,"cc",28319.908,1,0.100,297010.000,0.200,55038.000,0.300,4997.000,0.500,967.000,1.000,214.000,5.000,0
"05/02/07","15:24:54",386677.000,"cc",28317.199,1,0.100,321696.000,0.200,58482.000,0.300,5284.000,0.500,967.000,1.000,248.000,5.000,0
"05/02/07","15:25:54",337246.000,"cc",28318.186,1,0.100,279179.000,0.200,52151.000,0.300,4854.000,0.500,857.000,1.000,205.000,5.000,0
"05/02/07","15:26:54",337090.000,"cc",28306.219,1,0.100,279657.000,0.200,51742.000,0.300,4687.000,0.500,836.000,1.000,167.000,5.000,1.000
"05/02/07","15:27:54",371547.000,"cc",28328.979,1,0.100,308254.000,0.200,57151.000,0.300,5079.000,0.500,851.000,1.000,212.000,5.000,0
"05/02/07","15:28:54",479039.000,"cc",28306.529,1,0.100,398948.000,0.200,72575.000,0.300,6197.000,0.500,1032.000,1.000,287.000,5.000,0
"05/02/07","15:29:54",583105.000,"cc",28326.703,1,0.100,484916.000,0.200,89164.000,0.300,7388.000,0.500,1261.000,1.000,376.000,5.000,0
"05/02/07","15:30:54",595079.000,"cc",28314.309,1,0.100,495635.000,0.200,90120.000,0.300,7548.000,0.500,1378.000,1.000,398.000,5.000,0
"05/02/07","15:31:54",558227.000,"cc",28313.207,1,0.100,465442.000,0.200,83482.000,0.300,7355.000,0.500,1551.000,1.000,397.000,5.000,0
"05/02/07","15:32:54",644784.000,"cc",28318.727,1,0.100,539645.000,0.200,95801.000,0.300,7634.000,0.500,1332.000,1.000,372.000,5.000,0
"05/02/07","15:33:54",512739.000,"cc",28318.805,1,0.100,427614.000,0.200,76778.000,0.300,6652.000,0.500,1310.000,1.000,385.000,5.000,0
"05/02/07","15:34:54",479767.000,"cc",28315.566,1,0.100,400019.000,0.200,71934.000,0.300,6237.000,0.500,1223.000,1.000,354.000,5.000,0
"05/02/07","15:35:54",491689.000,"cc",28318.318,1,0.100,411134.000,0.200,73060.000,0.300,6016.000,0.500,1138.000,1.000,341.000,5.000,0
"05/02/07","15:36:54",451806.000,"cc",28316.606,1,0.100,377384.000,0.200,67377.000,0.300,5675.000,0.500,1085.000,1.000,284.000,5.000,1.000
"05/02/07","15:37:54",452295.000,"cc",28314.719,1,0.100,379355.000,0.200,66051.000,0.300,5507.000,0.500,1058.000,1.000,323.000,5.000,1.000
"05/02/07","15:38:54",429069.000,"cc",28318.420,1,0.100,358959.000,0.200,63466.000,0.300,5260.000,0.500,1060.000,1.000,323.000,5.000,1.000
"05/02/07","15:39:54",357993.000,"cc",28309.184,1,0.100,298389.000,0.200,53664.000,0.300,4648.000,0.500,993.000,1.000,299.000,5.000,0
"05/02/07","15:40:54",368019.000,"cc",28316.561,1,0.100,306573.000,0.200,55302.000,0.300,4786.000,0.500,1021.000,1.000,337.000,5.000,0
"05/02/07","15:41:54",504293.000,"cc",28317.443,1,0.100,423477.000,0.200,74005.000,0.300,5548.000,0.500,962.000,1.000,301.000,5.000,0
"05/02/07","15:42:54",472483.000,"cc",28314.135,1,0.100,396142.000,0.200,69533.000,0.300,5505.000,0.500,1010.000,1.000,292.000,5.000,1.000
"05/02/07","15:43:54",363683.000,"cc",28321.416,1,0.100,303435.000,0.200,54349.000,0.300,4675.000,0.500,939.000,1.000,285.000,5.000,0
"05/02/07","15:44:54",327569.000,"cc",28315.061,1,0.100,271263.000,0.200,50563.000,0.300,4543.000,0.500,927.000,1.000,273.000,5.000,0
"05/02/07","15:45:54",337495.000,"cc",28320.656,1,0.100,279880.000,0.200,51640.000,0.300,4828.000,0.500,924.000,1.000,223.000,5.000,0
"05/02/07","15:46:54",332433.000,"cc",28322.387,1,0.100,276002.000,0.200,50449.000,0.300,4691.000,0.500,1012.000,1.000,279.000,5.000,0
"05/02/07","15:47:54",342146.000,"cc",28315.045,1,0.100,284058.000,0.200,51999.000,0.300,4841.000,0.500,969.000,1.000,279.000,5.000,0
"05/02/07","15:48:54",373167.000,"cc",28313.611,1,0.100,310200.000,0.200,56368.000,0.300,5235.000,0.500,1059.000,1.000,304.000,5.000,1.000
"05/02/07","15:49:54",441207.000,"cc",28315.297,1,0.100,368245.000,0.200,65860.000,0.300,5702.000,0.500,1061.000,1.000,339.000,5.000,0
"05/02/07","15:50:54",432096.000,"cc",28321.307,1,0.100,360546.000,0.200,64579.000,0.300,5640.000,0.500,1009.000,1.000,321.000,5.000,1.000
"05/02/07","15:51:54",424489.000,"cc",28313.514,1,0.100,353714.000,0.200,64227.000,0.300,5339.000,0.500,918.000,1.000,290.000,5.000,1.000
"05/02/07","15:52:54",514188.000,"cc",28318.400,1,0.100,430226.000,0.200,76786.000,0.300,5860.000,0.500,1027.000,1.000,289.000,5.000,0
"05/02/07","15:53:54",533532.000,"cc",28319.016,1,0.100,446278.000,0.200,79773.000,0.300,6148.000,0.500,1050.000,1.000,283.000,5.000,0
"05/02/07","15:54:23",240001.000,"cc",28311.281,1,0.100,200337.000,0.200,36272.000,0.300,2768.000,0.500,481.000,1.000,143.000,5.000,0
"05/02/07","15:55:28",477033.000,"cc",28328.723,1,0.100,394912.000,0.200,74381.000,0.300,6228.000,0.500,1184.000,1.000,328.000,5.000,0
"05/02/07","15:56:28",411028.000,"cc",28319.295,1,0.100,339192.000,0.200,64542.000,0.300,5781.000,0.500,1157.000,1.000,356.000,5.000,0
"05/02/07","15:57:28",390492.000,"cc",28319.356,1,0.100,322592.000,0.200,61365.000,0.300,5235.000,0.500,1002.000,1.000,298.000,5.000,0
"05/02/07","15:58:07",227378.000,"cc",28306.713,1,0.100,187546.000,0.200,35911.000,0.300,3116.000,0.500,613.000,1.000,192.000,5.000,0
"05/02/07","15:58:18",34953.000,"cc",28309.363,1,0.100,28735.000,0.200,5636.000,0.300,453.000,0.500,105.000,1.000,24.000,5.000,0
"05/02/07","15:58:24",34039.000,"cc",28415.416,1,0.100,28126.000,0.200,5324.000,0.300,477.000,0.500,89.000,1.000,23.000,5.000,0
"05/02/07","15:58:30",34337.000,"cc",28318.113,1,0.100,28343.000,0.200,5407.000,0.300,452.000,0.500,106.000,1.000,29.000,5.000,0
"05/02/07","15:58:36",35644.000,"cc",28339.326,1,0.100,29485.000,0.200,5613.000,0.300,445.000,0.500,79.000,1.000,22.000,5.000,0
"05/02/07","15:58:42",35268.000,"cc",28347.320,1,0.100,29065.000,0.200,5582.000,0.300,488.000,0.500,96.000,1.000,37.000,5.000,0
"05/02/07","15:58:48",33771.000,"cc",28333.348,1,0.100,27781.000,0.200,5401.000,0.300,449.000,0.500,107.000,1.000,33.000,5.000,0
"05/02/07","15:58:54",33343.000,"cc",28304.297,1,0.100,27443.000,0.200,5275.000,0.300,480.000,0.500,107.000,1.000,38.000,5.000,0
"05/02/07","15:59:00",33029.000,"cc",28311.139,1,0.100,27245.000,0.200,5234.000,0.300,444.000,0.500,77.000,1.000,29.000,5.000,0
"05/02/07","15:59:06",32575.000,"cc",28350.592,1,0.100,26959.000,0.200,5089.000,0.300,425.000,0.500,86.000,1.000,16.000,5.000,0
"05/02/07","15:59:12",32412.000,"cc",28339.078,1,0.100,26887.000,0.200,5010.000,0.300,406.000,0.500,83.000,1.000,26.000,5.000,0
"05/02/07","15:59:18",33000.000,"cc",28287.084,1,0.100,27238.000,0.200,5198.000,0.300,442.000,0.500,90.000,1.000,32.000,5.000,0
"05/02/07","15:59:24",32868.000,"cc",28335.639,1,0.100,27053.000,0.200,5196.000,0.300,486.000,0.500,101.000,1.000,32.000,5.000,0
"05/02/07","15:59:30",31156.000,"cc",28335.795,1,0.100,25653.000,0.200,4963.000,0.300,437.000,0.500,81.000,1.000,22.000,5.000,0
"05/02/07","15:59:39",20015.000,"cc",27889.207,1,0.100,16458.000,0.200,3199.000,0.300,282.000,0.500,57.000,1.000,19.000,5.000,0
"05/02/07","15:59:50",41505.000,"cc",28247.107,1,0.100,34254.000,0.200,6536.000,0.300,576.000,0.500,109.000,1.000,30.000,5.000,0
"05/02/07","15:59:56",42705.000,"cc",28472.490,1,0.100,35329.000,0.200,6659.000,0.300,599.000,0.500,88.000,1.000,30.000,5.000,0
